When you browse on this site, cookies collect data to enhance your experience and personalize the content and advertising you see.
Visit our Privacy Policy to learn more. By continuing to use the site, you agree to this use of cookies and data.
  • In Hungary
  • List of Countries
  • For 7 days
  • Water Temperature
  • Weather Map
  • News
  • Weather Widgets
  • user-avatar
    Login

    Hourly Weather Nizhniy Tabyn

    Today, 24 August, Saturday

    Time Temperature Precipitation Wind Pressure Humidity
    00:00 +15°C° 0 mm 2 mps 759 mmHg 85%
    01:00 +14°C° 0 mm 1 mps 759 mmHg 87%
    02:00 +14°C° 0 mm 1 mps 760 mmHg 87%
    03:00 +14°C° 0 mm 1 mps 760 mmHg 87%
    04:00 +14°C° 0 mm 1 mps 760 mmHg 87%
    05:00 +14°C° 0 mm 1 mps 760 mmHg 85%
    06:00 +14°C° 0 mm 1 mps 760 mmHg 83%
    07:00 +15°C° 0 mm 1 mps 760 mmHg 82%
    08:00 +16°C° 0 mm 1 mps 760 mmHg 76%
    09:00 +19°C° 0 mm 1 mps 760 mmHg 70%
    10:00 +19°C° 0 mm 2 mps 760 mmHg 64%
    11:00 +20°C° 0 mm 2 mps 760 mmHg 60%
    12:00 +21°C° 0 mm 2 mps 760 mmHg 56%
    13:00 +23°C° 0 mm 2 mps 759 mmHg 52%
    14:00 +23°C° 0 mm 2 mps 759 mmHg 53%
    15:00 +22°C° 0 mm 3 mps 759 mmHg 53%
    16:00 +21°C° 0 mm 2 mps 759 mmHg 55%
    17:00 +20°C° 0 mm 2 mps 758 mmHg 60%
    18:00 +19°C° 0 mm 2 mps 758 mmHg 65%
    19:00 +18°C° 0 mm 2 mps 758 mmHg 70%
    20:00 +17°C° 0 mm 2 mps 757 mmHg 71%
    21:00 +16°C° 0 mm 1 mps 757 mmHg 73%
    22:00 +15°C° 0 mm 1 mps 757 mmHg 74%
    23:00 +15°C° 0 mm 1 mps 757 mmHg 75%

    Tomorrow, 25 August, Sunday

    Time Temperature Precipitation Wind Pressure Humidity
    00:00 +15°C° 0 mm 2 mps 756 mmHg 76%
    01:00 +15°C° 0 mm 2 mps 756 mmHg 78%
    02:00 +14°C° 0 mm 2 mps 756 mmHg 79%
    03:00 +14°C° 0 mm 2 mps 755 mmHg 80%
    04:00 +13°C° 0 mm 3 mps 755 mmHg 82%
    05:00 +13°C° 0 mm 3 mps 755 mmHg 81%
    06:00 +14°C° 0 mm 4 mps 754 mmHg 81%
    07:00 +14°C° 0 mm 4 mps 754 mmHg 80%
    08:00 +15°C° 0 mm 4 mps 754 mmHg 76%
    09:00 +17°C° 0 mm 5 mps 754 mmHg 72%
    10:00 +19°C° 0 mm 5 mps 753 mmHg 68%
    11:00 +19°C° 0.3 mm 6 mps 753 mmHg 69%
    12:00 +20°C° 0.3 mm 6 mps 753 mmHg 70%
    13:00 +20°C° 0.3 mm 7 mps 752 mmHg 70%
    14:00 +20°C° 0.1 mm 7 mps 752 mmHg 68%
    15:00 +20°C° 0.1 mm 7 mps 753 mmHg 66%
    16:00 +20°C° 0.1 mm 7 mps 753 mmHg 64%
    17:00 +17°C° 0 mm 6 mps 753 mmHg 68%
    18:00 +16°C° 0 mm 5 mps 753 mmHg 73%
    19:00 +15°C° 0 mm 4 mps 752 mmHg 77%
    20:00 +14°C° 0 mm 4 mps 753 mmHg 80%
    21:00 +13°C° 0 mm 5 mps 753 mmHg 83%
    22:00 +13°C° 0 mm 5 mps 754 mmHg 85%
    23:00 +12°C° 0 mm 5 mps 754 mmHg 85%

    Day after tomorrow, 26 August, Monday

    Time Temperature Precipitation Wind Pressure Humidity
    00:00 +12°C° 0 mm 5 mps 754 mmHg 84%
    01:00 +10°C° 0 mm 5 mps 754 mmHg 84%
    02:00 +9°C° 0 mm 5 mps 755 mmHg 86%
    03:00 +9°C° 0 mm 5 mps 756 mmHg 89%
    04:00 +9°C° 0 mm 5 mps 756 mmHg 92%
    05:00 +9°C° 0 mm 5 mps 756 mmHg 89%
    06:00 +8°C° 0 mm 6 mps 757 mmHg 86%
    07:00 +8°C° 0 mm 7 mps 757 mmHg 83%
    08:00 +10°C° 0 mm 7 mps 757 mmHg 77%
    09:00 +11°C° 0 mm 7 mps 757 mmHg 71%
    10:00 +12°C° 0 mm 7 mps 758 mmHg 66%
    11:00 +14°C° 0 mm 7 mps 758 mmHg 63%
    12:00 +15°C° 0 mm 7 mps 758 mmHg 61%
    13:00 +16°C° 0 mm 7 mps 758 mmHg 58%
    14:00 +16°C° 0 mm 7 mps 758 mmHg 58%
    15:00 +16°C° 0 mm 6 mps 758 mmHg 58%
    16:00 +16°C° 0 mm 6 mps 758 mmHg 57%
    17:00 +15°C° 0 mm 5 mps 758 mmHg 62%
    18:00 +14°C° 0 mm 4 mps 758 mmHg 67%
    19:00 +12°C° 0 mm 3 mps 758 mmHg 71%
    20:00 +12°C° 0 mm 3 mps 758 mmHg 74%
    21:00 +11°C° 0 mm 3 mps 758 mmHg 78%
    22:00 +10°C° 0 mm 2 mps 758 mmHg 81%
    23:00 +9°C° 0 mm 2 mps 757 mmHg 83%

    27 August, Tuesday

    Time Temperature Precipitation Wind Pressure Humidity
    00:00 +9°C° 0 mm 2 mps 757 mmHg 85%
    01:00 +9°C° 0 mm 3 mps 757 mmHg 87%
    02:00 +9°C° 0 mm 3 mps 756 mmHg 86%
    03:00 +9°C° 0 mm 3 mps 756 mmHg 84%
    04:00 +8°C° 0 mm 4 mps 756 mmHg 83%
    05:00 +9°C° 0 mm 5 mps 755 mmHg 82%
    06:00 +10°C° 0 mm 5 mps 754 mmHg 81%
    07:00 +10°C° 0 mm 6 mps 754 mmHg 80%
    08:00 +11°C° 0.1 mm 6 mps 753 mmHg 79%
    09:00 +13°C° 0.1 mm 6 mps 752 mmHg 78%
    10:00 +14°C° 0.1 mm 7 mps 752 mmHg 77%
    11:00 +15°C° 0.3 mm 7 mps 751 mmHg 77%
    12:00 +15°C° 0.3 mm 7 mps 751 mmHg 77%
    13:00 +16°C° 0.3 mm 7 mps 750 mmHg 77%
    14:00 +15°C° 1.2 mm 7 mps 749 mmHg 81%
    15:00 +15°C° 1.2 mm 6 mps 749 mmHg 85%
    16:00 +14°C° 1.2 mm 6 mps 748 mmHg 89%
    17:00 +14°C° 0.2 mm 5 mps 748 mmHg 89%
    18:00 +14°C° 0.2 mm 5 mps 747 mmHg 89%
    19:00 +14°C° 0.2 mm 4 mps 746 mmHg 88%
    20:00 +14°C° 0.4 mm 4 mps 746 mmHg 91%
    21:00 +13°C° 0.4 mm 3 mps 746 mmHg 93%
    22:00 +12°C° 0.4 mm 3 mps 745 mmHg 95%
    23:00 +12°C° 0 mm 3 mps 745 mmHg 95%

    28 August, Wednesday

    Time Temperature Precipitation Wind Pressure Humidity
    00:00 +12°C° 0 mm 2 mps 744 mmHg 95%
    01:00 +12°C° 0 mm 2 mps 744 mmHg 96%
    02:00 +12°C° 0 mm 2 mps 744 mmHg 96%
    03:00 +11°C° 0 mm 3 mps 744 mmHg 96%
    04:00 +10°C° 0 mm 3 mps 743 mmHg 96%
    05:00 +10°C° 0.2 mm 3 mps 743 mmHg 95%
    06:00 +10°C° 0.2 mm 3 mps 743 mmHg 95%
    07:00 +10°C° 0.2 mm 3 mps 743 mmHg 95%
    08:00 +11°C° 0 mm 4 mps 743 mmHg 93%
    09:00 +11°C° 0 mm 4 mps 743 mmHg 92%
    10:00 +12°C° 0 mm 4 mps 743 mmHg 90%
    11:00 +12°C° 0.1 mm 5 mps 743 mmHg 89%
    12:00 +11°C° 0.1 mm 6 mps 743 mmHg 87%
    13:00 +11°C° 0.1 mm 6 mps 743 mmHg 86%
    14:00 +11°C° 0 mm 6 mps 744 mmHg 83%
    15:00 +11°C° 0 mm 6 mps 744 mmHg 80%
    16:00 +13°C° 0 mm 6 mps 744 mmHg 77%
    17:00 +11°C° 0.1 mm 6 mps 744 mmHg 79%
    18:00 +11°C° 0.1 mm 6 mps 744 mmHg 81%
    19:00 +10°C° 0.1 mm 6 mps 744 mmHg 83%
    20:00 +10°C° 0 mm 6 mps 744 mmHg 83%
    21:00 +9°C° 0 mm 6 mps 744 mmHg 83%
    22:00 +9°C° 0 mm 6 mps 744 mmHg 84%
    23:00 +8°C° 0 mm 5 mps 744 mmHg 86%

    29 August, Thursday

    Time Temperature Precipitation Wind Pressure Humidity
    00:00 +7°C° 0 mm 5 mps 744 mmHg 89%
    01:00 +7°C° 0 mm 5 mps 744 mmHg 91%
    02:00 +7°C° 0.1 mm 5 mps 743 mmHg 91%
    03:00 +7°C° 0.1 mm 5 mps 743 mmHg 91%
    04:00 +8°C° 0.1 mm 5 mps 743 mmHg 91%
    05:00 +8°C° 0.3 mm 4 mps 743 mmHg 93%
    06:00 +10°C° 0.3 mm 4 mps 743 mmHg 94%
    07:00 +10°C° 0.3 mm 4 mps 744 mmHg 96%
    08:00 +11°C° 0 mm 4 mps 744 mmHg 93%
    09:00 +12°C° 0 mm 5 mps 744 mmHg 90%
    10:00 +12°C° 0 mm 5 mps 745 mmHg 88%
    11:00 +14°C° 0 mm 6 mps 745 mmHg 79%
    12:00 +16°C° 0 mm 6 mps 745 mmHg 71%
    13:00 +18°C° 0 mm 7 mps 746 mmHg 63%
    14:00 +17°C° 0.5 mm 7 mps 746 mmHg 67%
    15:00 +17°C° 0.5 mm 8 mps 747 mmHg 71%
    16:00 +16°C° 0.5 mm 9 mps 747 mmHg 76%
    17:00 +15°C° 0.3 mm 8 mps 748 mmHg 78%
    18:00 +13°C° 0.3 mm 8 mps 748 mmHg 80%
    19:00 +11°C° 0.3 mm 7 mps 749 mmHg 83%
    20:00 +11°C° 0 mm 7 mps 749 mmHg 83%
    21:00 +10°C° 0 mm 7 mps 750 mmHg 83%
    22:00 +10°C° 0 mm 6 mps 750 mmHg 83%
    23:00 +9°C° 0 mm 6 mps 750 mmHg 83%
    Show more